Time,TemperatureF,DewpointF,PressureIn,WindDirection,WindDirectionDegrees,WindSpeedMPH,WindSpeedGustMPH,Humidity,HourlyPrecipIn,Conditions,Clouds,dailyrainin,SoftwareType,DateUTC
2013-01-20 00:02:00,10.0,4.0,30.11,South,180,4.0,4.0,75,0.00,,,0.00,,2013-01-20 07:02:00,
2013-01-20 00:11:00,10.0,4.0,30.11,South,180,4.0,4.0,75,0.00,,,0.00,,2013-01-20 07:11:00,
2013-01-20 00:22:00,10.0,6.0,30.11,South,180,5.0,6.0,82,0.00,,,0.00,,2013-01-20 07:22:00,
2013-01-20 00:32:00,13.0,9.0,30.11,South,180,2.0,2.0,85,0.00,,,0.00,,2013-01-20 07:32:00,
2013-01-20 00:42:00,13.0,9.0,30.11,South,180,2.0,2.0,85,0.00,,,0.00,,2013-01-20 07:42:00,
2013-01-20 00:52:00,17.0,11.0,30.11,South,180,1.0,1.0,76,0.00,,,0.00,,2013-01-20 07:52:00,
2013-01-20 01:01:00,15.0,9.0,30.12,ESE,112,2.0,2.0,76,0.00,,,0.00,,2013-01-20 08:01:00,
2013-01-20 01:11:00,15.0,9.0,30.12,ESE,112,2.0,2.0,76,0.00,,,0.00,,2013-01-20 08:11:00,
2013-01-20 01:21:00,13.0,8.0,30.11,ESE,112,1.0,2.0,79,0.00,,,0.00,,2013-01-20 08:21:00,
2013-01-20 01:32:00,11.0,7.0,30.11,SSE,157,3.0,3.0,85,0.00,,,0.00,,2013-01-20 08:32:00,
2013-01-20 01:42:00,11.0,7.0,30.11,SSE,157,3.0,3.0,85,0.00,,,0.00,,2013-01-20 08:42:00,
2013-01-20 01:52:00,11.0,7.0,30.11,SSE,157,4.0,4.0,82,0.00,,,0.00,,2013-01-20 08:52:00,
2013-01-20 02:02:00,10.0,5.0,30.11,SSE,157,4.0,4.0,79,0.00,,,0.00,,2013-01-20 09:02:00,
2013-01-20 02:11:00,10.0,5.0,30.11,SSE,157,4.0,4.0,79,0.00,,,0.00,,2013-01-20 09:11:00,
2013-01-20 02:22:00,8.0,4.0,30.11,South,180,3.0,4.0,85,0.00,,,0.00,,2013-01-20 09:22:00,
2013-01-20 02:32:00,9.0,6.0,30.10,South,180,3.0,4.0,89,0.00,,,0.00,,2013-01-20 09:32:00,
2013-01-20 02:42:00,9.0,6.0,30.10,South,180,3.0,4.0,89,0.00,,,0.00,,2013-01-20 09:42:00,
2013-01-20 02:52:00,9.0,6.0,30.10,South,180,4.0,4.0,88,0.00,,,0.00,,2013-01-20 09:52:00,
2013-01-20 03:02:00,10.0,7.0,30.11,South,180,3.0,4.0,88,0.00,,,0.00,,2013-01-20 10:02:00,
2013-01-20 03:11:00,10.0,7.0,30.11,South,180,3.0,4.0,88,0.00,,,0.00,,2013-01-20 10:11:00,
2013-01-20 03:22:00,10.0,7.0,30.10,South,180,4.0,4.0,86,0.00,,,0.00,,2013-01-20 10:22:00,
2013-01-20 03:32:00,9.0,6.0,30.10,SSE,157,4.0,4.0,86,0.00,,,0.00,,2013-01-20 10:32:00,
2013-01-20 03:42:00,9.0,6.0,30.10,SSE,157,4.0,4.0,86,0.00,,,0.00,,2013-01-20 10:42:00,
2013-01-20 03:52:00,10.0,6.0,30.10,SSE,157,4.0,4.0,85,0.00,,,0.00,,2013-01-20 10:52:00,
2013-01-20 04:02:00,10.0,6.0,30.09,SSE,157,4.0,5.0,82,0.00,,,0.00,,2013-01-20 11:02:00,
2013-01-20 04:11:00,10.0,5.0,30.09,SSE,157,4.0,4.0,81,0.00,,,0.00,,2013-01-20 11:11:00,
2013-01-20 04:22:00,10.0,5.0,30.09,SSE,157,4.0,4.0,81,0.00,,,0.00,,2013-01-20 11:22:00,
2013-01-20 04:32:00,14.0,8.0,30.09,SSE,157,2.0,3.0,75,0.00,,,0.00,,2013-01-20 11:32:00,
2013-01-20 04:42:00,14.0,8.0,30.09,SSE,157,2.0,3.0,75,0.00,,,0.00,,2013-01-20 11:42:00,
2013-01-20 04:52:00,7.0,0.0,30.10,SSE,157,5.0,6.0,73,0.00,,,0.00,,2013-01-20 11:52:00,
2013-01-20 05:02:00,7.0,3.0,30.08,SSE,157,4.0,6.0,82,0.00,,,0.00,,2013-01-20 12:02:00,
2013-01-20 05:11:00,7.0,3.0,30.08,SSE,157,4.0,6.0,82,0.00,,,0.00,,2013-01-20 12:11:00,
2013-01-20 05:22:00,8.0,3.0,30.09,SSE,157,4.0,5.0,80,0.00,,,0.00,,2013-01-20 12:22:00,
2013-01-20 05:32:00,9.0,4.0,30.09,SSE,157,4.0,4.0,80,0.00,,,0.00,,2013-01-20 12:32:00,
2013-01-20 05:42:00,9.0,4.0,30.09,SSE,157,4.0,4.0,80,0.00,,,0.00,,2013-01-20 12:42:00,
2013-01-20 05:52:00,10.0,5.0,30.09,SSE,157,4.0,4.0,78,0.00,,,0.00,,2013-01-20 12:52:00,
2013-01-20 06:02:00,8.0,3.0,30.10,SSE,157,1.0,1.0,80,0.00,,,0.00,,2013-01-20 13:02:00,
2013-01-20 06:11:00,8.0,3.0,30.10,SSE,157,1.0,1.0,80,0.00,,,0.00,,2013-01-20 13:11:00,
2013-01-20 06:22:00,9.0,4.0,30.09,SSE,157,2.0,2.0,78,0.00,,,0.00,,2013-01-20 13:22:00,
2013-01-20 06:32:00,4.0,-1.0,30.10,South,180,5.0,6.0,78,0.00,,,0.00,,2013-01-20 13:32:00,
2013-01-20 06:42:00,4.0,-1.0,30.10,South,180,5.0,6.0,78,0.00,,,0.00,,2013-01-20 13:42:00,
2013-01-20 06:52:00,4.0,-1.0,30.09,South,180,5.0,6.0,81,0.00,,,0.00,,2013-01-20 13:52:00,
2013-01-20 07:01:00,7.0,3.0,30.08,South,180,4.0,4.0,82,0.00,,,0.00,,2013-01-20 14:01:00,
2013-01-20 07:11:00,7.0,3.0,30.08,South,180,4.0,4.0,82,0.00,,,0.00,,2013-01-20 14:11:00,
2013-01-20 07:22:00,7.0,1.0,30.09,South,180,6.0,6.0,77,0.00,,,0.00,,2013-01-20 14:22:00,
2013-01-20 07:32:00,6.0,1.0,30.09,South,180,4.0,5.0,81,0.00,,,0.00,,2013-01-20 14:32:00,
2013-01-20 07:42:00,6.0,1.0,30.09,South,180,4.0,5.0,81,0.00,,,0.00,,2013-01-20 14:42:00,
2013-01-20 07:52:00,6.0,2.0,30.08,South,180,5.0,6.0,85,0.00,,,0.00,,2013-01-20 14:52:00,
2013-01-20 08:02:00,6.0,1.0,30.09,ESE,112,4.0,5.0,80,0.00,,,0.00,,2013-01-20 15:02:00,
2013-01-20 08:12:00,6.0,1.0,30.09,ESE,112,4.0,5.0,80,0.00,,,0.00,,2013-01-20 15:12:00,
2013-01-20 08:22:00,10.0,4.0,30.11,ESE,112,2.0,2.0,77,0.00,,,0.00,,2013-01-20 15:22:00,
2013-01-20 08:32:00,13.0,5.0,30.12,SSE,157,3.0,3.0,69,0.00,,,0.00,,2013-01-20 15:32:00,
2013-01-20 08:42:00,13.0,5.0,30.12,SSE,157,3.0,3.0,69,0.00,,,0.00,,2013-01-20 15:42:00,
2013-01-20 08:52:00,11.0,3.0,30.12,SSE,157,3.0,3.0,68,0.00,,,0.00,,2013-01-20 15:52:00,
2013-01-20 09:02:00,13.0,4.0,30.13,SSE,157,2.0,3.0,66,0.00,,,0.00,,2013-01-20 16:02:00,
2013-01-20 09:22:00,17.0,5.0,30.14,SSE,157,1.0,2.0,58,0.00,,,0.00,,2013-01-20 16:22:00,
2013-01-20 09:32:00,18.0,8.0,30.16,SSE,157,1.0,1.0,64,0.00,,,0.00,,2013-01-20 16:32:00,
2013-01-20 09:52:00,19.0,5.0,30.16,SSE,157,2.0,2.0,54,0.00,,,0.00,,2013-01-20 16:52:00,
2013-01-20 10:02:00,22.0,10.0,30.16,SSE,157,0.0,0.0,60,0.00,,,0.00,,2013-01-20 17:02:00,
2013-01-20 10:32:00,26.0,12.0,30.18,SSE,157,0.0,0.0,55,0.00,,,0.00,,2013-01-20 17:32:00,
2013-01-20 10:52:00,29.0,12.0,30.18,SSE,157,0.0,0.0,49,0.00,,,0.00,,2013-01-20 17:52:00,
2013-01-20 11:02:00,29.0,12.0,30.18,SSE,157,0.0,0.0,49,0.00,,,0.00,,2013-01-20 18:02:00,
2013-01-20 11:12:00,30.0,14.0,30.19,SSE,157,0.0,1.0,50,0.00,,,0.00,,2013-01-20 18:12:00,
2013-01-20 11:22:00,30.0,14.0,30.19,SSE,157,0.0,1.0,50,0.00,,,0.00,,2013-01-20 18:22:00,
2013-01-20 11:32:00,30.0,13.0,30.18,East,90,1.0,2.0,49,0.00,,,0.00,,2013-01-20 18:32:00,
2013-01-20 11:42:00,30.0,13.0,30.18,East,90,1.0,2.0,49,0.00,,,0.00,,2013-01-20 18:42:00,
2013-01-20 11:52:00,29.0,14.0,30.18,WNW,292,1.0,2.0,53,0.00,,,0.00,,2013-01-20 18:52:00,
2013-01-20 12:02:00,30.0,15.0,30.16,North,360,3.0,4.0,52,0.00,,,0.00,,2013-01-20 19:02:00,
2013-01-20 12:11:00,30.0,15.0,30.16,North,360,3.0,4.0,52,0.00,,,0.00,,2013-01-20 19:11:00,
2013-01-20 12:22:00,29.0,14.0,30.15,North,360,2.0,3.0,52,0.00,,,0.00,,2013-01-20 19:22:00,
2013-01-20 12:32:00,30.0,15.0,30.14,NNE,22,2.0,4.0,52,0.00,,,0.00,,2013-01-20 19:32:00,
2013-01-20 12:42:00,30.0,15.0,30.14,NNE,22,2.0,4.0,52,0.00,,,0.00,,2013-01-20 19:42:00,
2013-01-20 12:52:00,31.0,16.0,30.14,NW,315,0.0,1.0,53,0.00,,,0.00,,2013-01-20 19:52:00,
2013-01-20 13:02:00,32.0,16.0,30.14,West,270,2.0,2.0,51,0.00,,,0.00,,2013-01-20 20:02:00,
2013-01-20 13:12:00,32.0,16.0,30.14,West,270,2.0,2.0,51,0.00,,,0.00,,2013-01-20 20:12:00,
2013-01-20 13:22:00,35.0,15.0,30.14,West,270,2.0,2.0,44,0.00,,,0.00,,2013-01-20 20:22:00,
2013-01-20 13:32:00,36.0,16.0,30.14,West,270,1.0,2.0,44,0.00,,,0.00,,2013-01-20 20:32:00,
2013-01-20 13:42:00,36.0,16.0,30.14,West,270,1.0,2.0,44,0.00,,,0.00,,2013-01-20 20:42:00,
2013-01-20 13:52:00,35.0,16.0,30.14,West,270,2.0,2.0,46,0.00,,,0.00,,2013-01-20 20:52:00,
2013-01-20 14:02:00,35.0,16.0,30.15,West,270,2.0,2.0,45,0.00,,,0.00,,2013-01-20 21:02:00,
2013-01-20 14:12:00,35.0,16.0,30.15,West,270,2.0,2.0,45,0.00,,,0.00,,2013-01-20 21:12:00,
2013-01-20 14:22:00,34.0,15.0,30.15,West,270,2.0,2.0,45,0.00,,,0.00,,2013-01-20 21:22:00,
2013-01-20 14:32:00,34.0,15.0,30.14,West,270,2.0,3.0,45,0.00,,,0.00,,2013-01-20 21:32:00,
2013-01-20 14:42:00,34.0,15.0,30.14,West,270,2.0,3.0,45,0.00,,,0.00,,2013-01-20 21:42:00,
2013-01-20 14:52:00,34.0,16.0,30.14,WNW,292,2.0,3.0,47,0.00,,,0.00,,2013-01-20 21:52:00,
2013-01-20 15:02:00,34.0,15.0,30.14,WNW,292,0.0,0.0,46,0.00,,,0.00,,2013-01-20 22:02:00,
2013-01-20 15:12:00,34.0,15.0,30.14,WNW,292,0.0,0.0,46,0.00,,,0.00,,2013-01-20 22:12:00,
2013-01-20 15:22:00,34.0,15.0,30.15,North,360,3.0,4.0,45,0.00,,,0.00,,2013-01-20 22:22:00,
2013-01-20 15:32:00,35.0,15.0,30.14,North,360,2.0,2.0,43,0.00,,,0.00,,2013-01-20 22:32:00,
2013-01-20 15:42:00,35.0,15.0,30.14,North,360,2.0,2.0,43,0.00,,,0.00,,2013-01-20 22:42:00,
2013-01-20 15:52:00,34.0,14.0,30.15,North,360,2.0,2.0,44,0.00,,,0.00,,2013-01-20 22:52:00,
2013-01-20 16:02:00,35.0,15.0,30.14,North,360,0.0,0.0,43,0.00,,,0.00,,2013-01-20 23:02:00,
2013-01-20 16:11:00,35.0,15.0,30.14,North,360,0.0,0.0,43,0.00,,,0.00,,2013-01-20 23:11:00,
2013-01-20 16:22:00,37.0,15.0,30.14,North,360,0.0,0.0,40,0.00,,,0.00,,2013-01-20 23:22:00,
2013-01-20 16:32:00,34.0,14.0,30.15,North,360,0.0,0.0,43,0.00,,,0.00,,2013-01-20 23:32:00,
2013-01-20 16:42:00,34.0,14.0,30.15,North,360,0.0,0.0,43,0.00,,,0.00,,2013-01-20 23:42:00,
2013-01-20 16:52:00,34.0,14.0,30.14,North,360,0.0,0.0,43,0.00,,,0.00,,2013-01-20 23:52:00,
2013-01-20 17:02:00,32.0,13.0,30.14,SW,225,2.0,2.0,44,0.00,,,0.00,,2013-01-21 00:02:00,
2013-01-20 17:12:00,32.0,13.0,30.14,SW,225,2.0,2.0,44,0.00,,,0.00,,2013-01-21 00:12:00,
2013-01-20 17:22:00,30.0,14.0,30.12,SW,225,0.0,0.0,50,0.00,,,0.00,,2013-01-21 00:22:00,
2013-01-20 17:32:00,28.0,14.0,30.10,SW,225,0.0,0.0,54,0.00,,,0.00,,2013-01-21 00:32:00,
2013-01-20 17:42:00,28.0,14.0,30.10,SW,225,0.0,0.0,54,0.00,,,0.00,,2013-01-21 00:42:00,
2013-01-20 17:52:00,26.0,13.0,30.08,SW,225,2.0,2.0,57,0.00,,,0.00,,2013-01-21 00:52:00,
2013-01-20 18:02:00,24.0,14.0,30.09,South,180,2.0,3.0,64,0.00,,,0.00,,2013-01-21 01:02:00,
2013-01-20 18:12:00,24.0,14.0,30.09,South,180,2.0,3.0,64,0.00,,,0.00,,2013-01-21 01:12:00,
2013-01-20 18:22:00,22.0,12.0,30.09,South,180,3.0,4.0,66,0.00,,,0.00,,2013-01-21 01:22:00,
2013-01-20 18:32:00,22.0,12.0,30.08,South,180,3.0,4.0,66,0.00,,,0.00,,2013-01-21 01:32:00,
2013-01-20 18:42:00,22.0,12.0,30.08,South,180,3.0,4.0,66,0.00,,,0.00,,2013-01-21 01:42:00,
2013-01-20 18:52:00,21.0,12.0,30.08,South,180,4.0,5.0,68,0.00,,,0.00,,2013-01-21 01:52:00,
2013-01-20 19:01:00,20.0,12.0,30.08,South,180,4.0,4.0,72,0.00,,,0.00,,2013-01-21 02:01:00,
2013-01-20 19:11:00,20.0,12.0,30.08,South,180,4.0,4.0,72,0.00,,,0.00,,2013-01-21 02:11:00,
2013-01-20 19:22:00,19.0,12.0,30.08,South,180,4.0,5.0,74,0.00,,,0.00,,2013-01-21 02:22:00,
2013-01-20 19:32:00,18.0,11.0,30.08,South,180,4.0,4.0,74,0.00,,,0.00,,2013-01-21 02:32:00,
2013-01-20 19:42:00,18.0,11.0,30.08,South,180,4.0,4.0,74,0.00,,,0.00,,2013-01-21 02:42:00,
2013-01-20 19:52:00,17.0,11.0,30.08,South,180,4.0,5.0,77,0.00,,,0.00,,2013-01-21 02:52:00,
2013-01-20 20:02:00,18.0,11.0,30.08,South,180,4.0,4.0,75,0.00,,,0.00,,2013-01-21 03:02:00,
2013-01-20 20:11:00,18.0,11.0,30.08,South,180,4.0,4.0,75,0.00,,,0.00,,2013-01-21 03:11:00,
2013-01-20 20:22:00,18.0,11.0,30.09,South,180,3.0,4.0,73,0.00,,,0.00,,2013-01-21 03:22:00,
2013-01-20 20:32:00,17.0,10.0,30.09,South,180,4.0,5.0,74,0.00,,,0.00,,2013-01-21 03:32:00,
2013-01-20 20:42:00,17.0,10.0,30.09,South,180,4.0,5.0,74,0.00,,,0.00,,2013-01-21 03:42:00,
2013-01-20 20:52:00,14.0,8.0,30.09,South,180,4.0,5.0,76,0.00,,,0.00,,2013-01-21 03:52:00,
2013-01-20 21:02:00,15.0,9.0,30.09,South,180,5.0,5.0,76,0.00,,,0.00,,2013-01-21 04:02:00,
2013-01-20 21:11:00,15.0,9.0,30.09,South,180,5.0,5.0,76,0.00,,,0.00,,2013-01-21 04:11:00,
2013-01-20 21:22:00,15.0,9.0,30.09,South,180,5.0,6.0,76,0.00,,,0.00,,2013-01-21 04:22:00,
2013-01-20 21:32:00,16.0,9.0,30.09,South,180,4.0,4.0,74,0.00,,,0.00,,2013-01-21 04:32:00,
2013-01-20 21:42:00,16.0,9.0,30.09,South,180,4.0,4.0,74,0.00,,,0.00,,2013-01-21 04:42:00,
2013-01-20 21:52:00,17.0,10.0,30.09,South,180,4.0,5.0,72,0.00,,,0.00,,2013-01-21 04:52:00,
2013-01-20 22:03:00,17.0,9.0,30.09,SSE,157,3.0,4.0,71,0.00,,,0.00,,2013-01-21 05:03:00,
2013-01-20 22:12:00,17.0,9.0,30.09,SSE,157,3.0,4.0,71,0.00,,,0.00,,2013-01-21 05:12:00,
2013-01-20 22:22:00,17.0,8.0,30.08,SSE,157,2.0,3.0,68,0.00,,,0.00,,2013-01-21 05:22:00,
2013-01-20 22:32:00,17.0,8.0,30.09,SSE,157,3.0,4.0,68,0.00,,,0.00,,2013-01-21 05:32:00,
2013-01-20 22:42:00,17.0,8.0,30.09,SSE,157,3.0,4.0,68,0.00,,,0.00,,2013-01-21 05:42:00,
2013-01-20 22:52:00,15.0,6.0,30.09,SSE,157,4.0,4.0,68,0.00,,,0.00,,2013-01-21 05:52:00,
2013-01-20 23:02:00,12.0,5.0,30.08,South,180,4.0,4.0,73,0.00,,,0.00,,2013-01-21 06:02:00,
2013-01-20 23:12:00,12.0,5.0,30.08,South,180,4.0,4.0,73,0.00,,,0.00,,2013-01-21 06:12:00,
2013-01-20 23:22:00,12.0,6.0,30.07,South,180,6.0,6.0,75,0.00,,,0.00,,2013-01-21 06:22:00,
2013-01-20 23:32:00,12.0,6.0,30.07,South,180,4.0,4.0,75,0.00,,,0.00,,2013-01-21 06:32:00,
2013-01-20 23:42:00,12.0,6.0,30.07,South,180,4.0,4.0,75,0.00,,,0.00,,2013-01-21 06:42:00,
2013-01-20 23:52:00,13.0,6.0,30.08,South,180,4.0,5.0,72,0.00,,,0.00,,2013-01-21 06:52:00,